Location: La Junie
(44.7428°N, 2.1773°E)
Time: 07:51:31
(UTC+00:00)

CZ-4B R/B - Pass Details

Date: 15 May 2026
Orbit: 700 x 797 km, 98.9° (Epoch: 6 June)

Event Time Altitude Azimuth Distance (km) Brightness Sun altitude
Exits shadow 21:23:16 34° 163° (SSE) 1,161 3.9 -18.2°
Maximum altitude 21:25:23 88° 75° (ENE) 717 3.3 -18.5°
Drops below altitude 10° 21:30:15 10° 346° (NNW) 2,219 6.9 -18.9°
Sets 21:32:33 0° 346° (NNW) 3,158 8.0 -19.2°
